User: anonymous   Login
Location: El Bakhil
(32.7726°N, 5.5387°W)
Time: 08:17:29
(UTC+00:00)
Language:

First-Move - Orbit

View from above orbital plane
View from above orbital plane
View from above satellite
View from above satellite

Ground track
Ground track

The orbit data is extracted from the following two-line orbital elements,

1 39439U 13066Z   22329.87758045  .00003437  00000-0  39072-3 0  9997
2 39439  97.6576 297.2025 0059364 228.0554 131.5594 14.85623513486004
Epoch (UTC): 25 November 2022 21:03:42
Eccentricity: 0.0059364
inclination: 97.6576°
perigee height: 570 km
apogee height: 653 km
right ascension of ascending node: 297.2025°
argument of perigee: 228.0554°
revolutions per day: 14.85623513
mean anomaly at epoch: 131.5594°
orbit number at epoch: 48600

The dashed part of the orbit path shows where the satellite is in the earth's shadow,  

DLR